Location: Newark
(40.9464°N, 15.0486°E)
Time: 02:59:22
(UTC+00:00)

Envisat - Visible Passes

Search period start: 08 December 2019 00:00
Search period end: 18 December 2019 00:00
Orbit: 764 x 766 km, 98.1° (Epoch: 07 December)

Date Brightness Start Highest point End Pass type
(mag) Time Alt. Az. Time Alt. Az. Time Alt. Az.
08 Dec 6.4 04:20:58 10° ENE 04:21:49 10° E 04:22:39 10° E visible
08 Dec 3.3 17:10:38 10° S 17:15:41 67° WSW 17:20:46 10° NNW visible
09 Dec 4.4 05:19:48 10° NNE 05:24:38 42° E 05:29:26 10° S visible
09 Dec 3.1 16:34:01 10° SSE 16:38:57 55° ENE 16:43:55 10° N visible
09 Dec 5.7 18:15:03 10° SW 18:18:19 17° W 18:21:36 10° NW visible
10 Dec 5.9 04:44:00 10° NE 04:47:37 19° E 04:51:12 10° SE visible
10 Dec 3.9 15:58:18 10° ESE 16:02:26 26° ENE 16:06:34 10° NNE visible
10 Dec 4.4 17:36:34 10° SSW 17:41:15 38° W 17:45:59 10° NNW visible
11 Dec 3.0 16:59:19 10° SSE 17:04:24 85° WSW 17:09:31 10° NNW visible
12 Dec 4.9 05:08:42 10° NNE 05:13:18 33° E 05:17:53 10° SSE visible
12 Dec 3.3 16:22:57 10° SE 16:27:44 43° ENE 16:32:32 10° N visible
12 Dec 5.4 18:03:04 10° SW 18:06:55 22° W 18:10:48 10° NW visible
13 Dec 6.0 04:33:19 10° NE 04:36:13 15° E 04:39:06 10° SE visible
13 Dec 4.0 17:25:03 10° S 17:29:56 48° W 17:34:51 10° NNW visible
14 Dec 3.7 05:33:52 10° NNE 05:38:54 60° E 05:43:54 10° S visible
14 Dec 2.9 16:48:04 10° SSE 16:53:07 76° ENE 16:58:13 10° N visible
14 Dec 6.1 18:30:48 10° WSW 18:32:42 12° W 18:34:36 10° WNW visible
15 Dec 5.3 04:57:41 10° NE 05:01:57 27° E 05:06:12 10° SSE visible
15 Dec 3.6 16:11:58 10° SE 16:16:31 35° ENE 16:21:05 10° N visible
15 Dec 5.0 17:51:17 10° SSW 17:55:33 27° W 17:59:52 10° NW visible
16 Dec 6.2 04:23:04 10° ENE 04:24:48 12° E 04:26:32 10° ESE visible
16 Dec 3.5 17:13:37 10° S 17:18:37 61° W 17:23:40 10° NNW visible
17 Dec 4.2 05:22:41 10° NNE 05:27:35 47° E 05:32:27 10° S visible
17 Dec 3.0 16:36:53 10° SSE 16:41:52 60° ENE 16:46:53 10° N visible
17 Dec 5.9 18:18:19 10° SW 18:21:17 16° W 18:24:16 10° NW visible
